Regional Weather Roundup
Issued by NWS Kansas City/Pleasant Hill, MO

Home | Current Version | Previous Version | Graphics & Text | Print | Product List | Glossary Off
Versions: 1 2 3 4 5 6 7 8 9 10 11 12 13 14 15 16 17 18 19 20 21 22 23 24 25 26 27 28 29 30 31 32 33 34 35 36 37 38 39 40 41 42 43 44 45 46 47 48 49 50

000
ASUS43 KEAX 300610
RWREAX

WEATHER ROUNDUP FOR EASTERN KANSAS AND NORTHWEST MISSOURI
NATIONAL WEATHER SERVICE KANSAS CITY/PLEASANT HILL MO
100 AM CDT THU JUL 30 2015

KSZ040-057-103>105-MOZ028-029-037-043-300700-
...KANSAS CITY METROPOLITAN AREA...

CITY           SKY/WX    TMP DP  RH WIND       PRES   REMARKS
K.C. INTL      PTCLDY    70  65  84 NE5       30.17F
6HR MIN TEMP:  70; 6HR MAX TEMP:  82;

K.C. DOWNTOWN  CLEAR     73  67  81 CALM      30.16S
6HR MIN TEMP:  72; 6HR MAX TEMP:  84;

LEES SUMMIT    PTCLDY    69  65  86 CALM      30.18S
6HR MIN TEMP:  69; 6HR MAX TEMP:  83;

OLATHE - IXD   CLEAR     70  67  90 CALM      30.18S
6HR MIN TEMP:  70; 6HR MAX TEMP:  81;

OLATHE - OJC   CLEAR     71  66  84 NE5       30.17S
6HR MIN TEMP:  71; 6HR MAX TEMP:  83;

LAWRENCE       CLEAR     67  64  90 CALM      30.17S

$$

MOZ001>008-011>017-020>025-030>033-038>040-044>046-053-054-300700-
...NORTHERN AND CENTRAL MISSOURI...

CITY           SKY/WX    TMP DP  RH WIND       PRES   REMARKS
ST. JOSEPH     CLEAR     67  65  93 CALM      30.17S
6HR MIN TEMP:  66; 6HR MAX TEMP:  82;

MOSBY          CLEAR     68  68 100 CALM      30.18S
WARRENSBURG    PTCLDY    68  64  88 CALM      30.16S
WHITEMAN AFB   PTCLDY    67  64  89 CALM      30.15S
6HR MIN TEMP:  67; 6HR MAX TEMP:  84;

CLINTON        PTCLDY    72  66  83 CALM      30.17R
SEDALIA        CLEAR     69  65  86 N5        30.17S
6HR MIN TEMP:  69; 6HR MAX TEMP:  84;

WARSAW         NOT AVBL
CHILLICOTHE      N/A     66  64  93 CALM      30.18S
6HR MIN TEMP:  66; 6HR MAX TEMP:  84;

KIRKSVILLE     CLEAR     65  62  90 W3        30.18R
6HR MIN TEMP:  64; 6HR MAX TEMP:  81; 6HR PCP: TRACE;


$$

MOZ041-047>049-056>058-063>065-088>090-097-300700-
...EASTERN AND SOUTHERN MISSOURI...

CITY           SKY/WX    TMP DP  RH WIND       PRES   REMARKS
ST. LOUIS INTL PTCLDY    74  61  63 NW3       30.13R
6HR MIN TEMP:  73; 6HR MAX TEMP:  86;

SPIRIT OF STL  CLEAR     67  65  93 CALM      30.12R
COLUMBIA       CLEAR     70  64  81 N3        30.16S
JEFFERSON CITY CLEAR     69  65  86 NW6       30.15R
ROLLA          CLEAR     67  62  84 CALM      30.15R
OSAGE BEACH    CLEAR     70  63  78 NE3       30.16R
SPRINGFIELD    CLEAR     75  66  73 NE6       30.15S
BRANSON        MOCLDY    75  68  78 CALM      30.17R
JOPLIN         MOCLDY    77  68  73 NE6       30.15R
WEST PLAINS    CLEAR     73  66  78 NE6       30.16R

$$

IAZ060-094-KSZ022-034>040-054-083-096-NEZ052-066-093-300700-
...KANSAS...SOUTHEAST NEBRASKA AND IOWA...

CITY           SKY/WX    TMP DP  RH WIND       PRES   REMARKS
TOPEKA         CLEAR     68  67  96 CALM      30.18R
6HR MIN TEMP:  68; 6HR MAX TEMP:  83;

MANHATTAN      CLEAR     66  65  96 CALM      30.18S
EMPORIA        CLEAR     71  67  87 NE3       30.18S
CHANUTE        CLOUDY    77  67  71 NE8       30.15F
WICHITA        PTCLDY    76  69  79 NE8       30.16S
OMAHA          CLEAR     69  62  78 SE5       30.16S
LINCOLN        CLEAR     66  59  78 CALM      30.19S
FALLS CITY     CLEAR     68  66  93 CALM      30.17S
LAMONI         CLEAR     70  60  70 W5        30.17S
DES MOINES     CLEAR     68  61  78 W5        30.13R

$$




USA.gov is the U.S. government's official web portal to all federal, state and local government web resources and services.